Wind_Speed
10 10 10 9 9 10 10 10 9 8 8 7 8 9 12 15 14 14 17 14 6 5 14 12 10 10 12 12 12 6 14 15 14 15 12 8 11 16 14 11 8 8 8 7 8
12 12 12 11 10 10 11 11 10 10 10 10 7 8 11 12 18 19 18 14 9 7 6 14 16 13 12 12 12 6 15 15 14 16 17 10 14 15 14 13 8 4 6 9 8
16 15 15 14 14 13 13 13 11 10 10 10 11 11 11 11 14 20 21 14 11 15 15 18 18 16 10 13 14 9 11 11 9 11 18 15 13 12 16 16 13 6 2 6 9
18 18 18 18 18 17 15 14 12 10 10 11 11 11 14 12 12 14 23 20 18 15 17 10 11 12 10 16 18 11 12 10 9 15 18 17 14 10 18 21 17 11 4 1 4
21 21 21 21 21 20 19 16 14 12 11 9 10 10 13 11 9 13 13 23 21 19 14 10 9 12 13 17 18 17 17 14 10 15 16 14 18 14 17 20 18 15 9 0 7
24 24 24 23 23 23 21 18 15 14 13 11 9 11 13 9 9 6 11 15 23 20 18 10 12 17 18 19 18 22 26 21 14 12 16 15 15 15 15 18 18 12 9 5 7
24 25 26 25 25 26 25 21 19 17 15 13 12 13 15 6 11 9 6 12 16 22 20 15 20 18 19 21 24 22 26 20 15 3 5 12 12 15 10 19 17 17 9 6 8
28 27 25 24 24 27 27 22 21 19 17 17 15 16 16 8 14 12 8 9 13 17 22 22 20 23 23 25 29 25 24 16 15 7 6 10 10 11 12 13 15 16 6 6 9
30 31 31 29 27 27 28 26 22 20 18 17 18 20 21 13 13 13 13 13 12 14 19 25 22 20 24 24 29 27 20 16 16 11 9 11 11 12 8 8 12 13 4 3 9
35 35 35 35 33 32 31 31 29 25 23 20 19 20 21 17 18 19 17 13 14 15 15 16 22 25 21 21 16 22 20 22 16 11 13 7 17 13 12 7 11 6 5 2 7
41 41 40 40 38 37 36 34 34 32 27 28 24 24 23 23 20 21 21 16 17 14 12 14 16 13 20 19 18 22 25 25 19 20 13 13 14 15 14 9 9 9 5 4 5
45 45 44 47 46 43 41 40 39 38 32 31 31 27 30 29 26 22 23 21 18 15 19 14 4 11 21 24 21 24 23 25 24 23 20 18 20 16 11 14 10 4 5 7 7
51 51 49 49 50 50 48 47 45 44 41 31 33 32 33 34 28 28 27 25 22 23 20 17 12 16 19 22 25 22 18 22 25 30 29 24 22 20 13 15 16 14 11 13 11
54 55 55 53 54 54 53 52 52 50 49 43 40 40 38 38 33 29 29 29 27 22 23 21 20 21 18 17 22 24 19 27 28 33 35 31 29 22 18 17 18 16 16 16 15
58 58 57 57 55 58 58 57 56 55 54 51 47 45 43 43 38 33 32 33 27 26 28 19 20 20 20 12 18 18 26 26 33 35 36 39 32 23 24 20 17 21 20 20 18
56 58 61 60 61 59 59 62 62 59 60 56 53 48 47 43 44 39 43 38 34 35 33 30 27 29 23 23 21 21 31 33 37 41 46 37 34 24 27 16 19 20 17 15 20
64 62 61 62 60 63 63 62 64 65 61 61 60 56 52 47 45 43 43 46 42 41 36 30 30 29 28 27 25 27 35 41 43 47 40 34 39 15 19 15 24 22 19 13 13
70 70 67 66 65 64 65 66 67 67 67 66 64 62 54 53 52 47 46 48 48 45 40 38 38 33 31 26 25 26 34 42 38 37 34 39 29 13 18 24 26 23 22 24 24
72 70 70 69 67 69 69 69 69 69 70 69 68 66 65 57 54 51 51 49 46 45 43 45 43 38 37 34 33 33 34 30 41 40 39 40 28 28 23 25 29 25 25 28 24
76 76 73 71 70 69 70 71 71 74 73 74 71 70 70 66 59 58 57 55 54 53 49 50 47 42 36 41 41 38 32 38 43 43 38 35 28 20 19 22 26 25 26 26 23
62 65 67 70 72 69 68 71 72 76 78 76 75 73 72 70 66 63 64 61 59 57 57 54 52 49 48 49 40 40 42 43 42 42 37 34 24 21 16 19 27 25 30 30 30
45 47 49 51 58 59 62 66 69 68 76 81 80 79 76 74 73 69 67 68 65 64 62 60 60 56 54 49 45 43 45 46 47 37 34 33 26 20 14 17 26 31 33 29 28
40 41 42 40 41 41 44 49 60 66 71 79 83 84 83 80 78 74 73 72 71 68 68 65 65 62 58 57 57 57 50 50 46 45 45 41 25 23 14 14 22 31 35 31 28
35 34 33 33 33 29 26 34 49 58 63 73 81 85 86 86 83 81 77 76 75 74 73 71 69 66 64 61 62 62 58 55 52 55 46 45 31 21 21 20 21 31 40 42 40
35 30 26 26 25 24 20 23 36 45 49 54 69 79 82 85 86 85 82 80 78 79 79 77 74 72 70 66 64 63 62 61 60 55 53 43 38 28 23 20 24 26 33 41 42
32 30 23 20 20 20 21 20 19 29 34 40 32 54 75 76 82 82 85 85 83 82 83 82 80 78 75 73 70 66 63 62 62 60 58 50 48 38 29 25 29 29 30 32 42
29 27 25 21 18 18 20 19 17 14 20 25 46 43 42 63 77 80 85 87 89 87 86 87 87 83 81 78 76 74 66 64 64 64 59 54 47 40 33 31 32 34 36 33 32
Wind_Direction
282 285 289 296 303 305 306 301 296 300 310 309 287 275 252 241 236 234 229 235 273 269 215 210 214 209 195 199 194 175 131 127 162 93 75 69 89 90 85 86 122 142 159 159 168
278 277 275 279 283 288 291 289 288 289 291 291 296 281 266 249 234 236 247 246 247 244 213 226 231 216 209 208 199 203 149 137 122 109 94 67 91 105 93 74 88 112 185 178 177
274 271 269 269 273 277 277 276 276 274 276 279 279 283 283 259 245 238 244 236 236 232 223 217 215 218 214 212 201 189 158 149 122 141 127 102 72 87 93 69 58 52 93 194 208
268 266 264 264 266 270 268 265 265 269 266 265 269 271 278 283 257 242 241 237 236 244 237 234 220 220 213 212 195 187 166 179 154 160 155 120 92 59 83 67 50 31 17 173 184
271 268 264 264 265 265 261 258 253 257 256 255 263 263 267 284 264 247 248 241 238 244 250 220 206 205 203 220 208 184 191 189 172 114 125 131 118 94 78 72 53 44 26 39 158
276 273 270 267 265 263 260 254 249 248 247 240 243 252 263 267 282 271 246 244 240 239 247 238 207 207 203 212 206 202 200 204 183 100 123 133 128 116 100 68 45 34 33 43 158
279 275 273 269 265 262 258 252 251 244 244 238 230 242 259 261 270 263 258 252 242 240 239 234 218 212 209 205 201 202 207 212 183 236 185 123 134 118 110 83 46 13 8 64 166
282 281 276 269 266 264 262 253 250 249 241 244 234 233 249 228 254 270 270 260 251 239 237 236 229 210 210 208 205 203 205 194 224 240 265 161 121 120 99 80 53 18 352 78 167
280 279 276 274 270 265 263 258 251 248 243 238 238 239 245 224 237 259 251 244 255 256 247 241 235 230 220 214 213 215 202 187 217 258 276 190 149 138 104 81 60 21 12 94 150
279 277 275 271 268 264 261 260 257 251 249 243 236 241 250 245 230 244 256 248 237 246 262 260 249 243 232 236 245 229 204 203 225 239 258 228 154 142 114 99 71 51 53 121 153
275 274 273 271 268 263 262 257 259 255 250 250 245 242 242 251 244 239 247 249 242 248 261 268 261 255 247 243 230 222 214 205 221 238 238 245 178 167 133 138 118 99 82 123 174
270 269 269 269 267 264 261 258 255 253 249 247 249 244 246 243 248 241 242 251 252 249 243 249 314 270 242 230 231 231 219 211 224 239 233 233 213 206 171 143 136 126 256 150 161
271 267 264 264 264 263 262 261 257 254 249 243 247 242 248 244 240 244 239 242 239 242 245 246 231 239 239 230 221 224 217 203 217 230 236 239 230 214 210 191 171 163 195 167 165
271 268 265 264 262 260 259 259 259 257 254 249 241 247 242 244 243 240 241 241 237 238 241 233 234 236 239 238 224 219 219 212 218 227 231 238 229 214 212 203 183 180 191 168 167
273 268 265 262 261 260 258 257 256 257 258 254 247 244 243 248 246 238 235 236 236 236 237 245 243 243 244 249 237 210 221 226 225 232 233 232 238 203 205 208 206 178 193 171 167
275 274 268 264 262 259 256 255 253 253 253 253 253 247 246 241 245 240 241 233 232 233 234 233 229 233 226 221 217 209 214 220 221 226 238 233 243 202 200 204 212 179 178 183 171
272 270 268 266 263 261 258 253 252 249 250 250 252 250 247 248 242 241 239 243 238 241 244 246 242 241 232 230 225 217 211 218 220 225 251 236 242 204 211 204 190 161 166 177 183
274 269 265 262 260 256 255 255 251 247 246 247 250 250 246 247 245 242 240 239 238 235 233 236 236 236 235 233 241 239 230 230 238 243 251 237 243 207 199 186 199 176 175 191 192
281 275 267 261 256 252 250 249 252 250 247 245 246 247 249 244 244 242 240 239 238 239 233 233 231 227 226 228 233 234 233 244 240 245 250 259 257 251 231 205 201 204 211 200 197
283 278 273 267 259 253 249 246 245 247 246 246 244 243 244 246 239 240 239 237 235 236 232 231 228 222 222 228 228 228 229 234 237 241 249 253 251 254 235 220 218 214 210 194 172
288 282 275 269 263 256 250 246 242 240 241 241 243 241 240 241 241 236 237 237 235 234 235 234 234 223 221 230 230 229 231 231 233 239 247 260 256 260 250 223 218 221 205 195 184
294 291 285 279 270 261 253 246 240 238 237 236 236 237 237 237 237 235 234 235 236 235 234 234 236 233 233 230 229 227 227 238 244 246 253 258 255 256 244 218 217 218 215 211 208
298 295 293 293 290 281 263 247 238 232 230 232 233 233 233 232 232 231 232 233 234 235 236 233 234 234 234 231 230 231 232 234 235 236 237 241 235 244 260 236 214 213 215 218 219
319 305 300 297 296 293 282 251 237 229 225 228 229 229 230 230 228 228 228 229 230 232 235 234 235 233 234 231 232 232 234 237 235 238 239 240 238 233 231 235 225 216 216 220 225
329 325 310 302 297 302 295 272 245 239 226 226 227 229 227 227 226 225 223 225 224 229 232 234 234 234 234 234 234 233 234 236 238 241 244 244 242 226 217 220 229 225 222 220 223
330 333 322 311 300 295 300 304 287 248 235 215 221 235 230 228 226 223 222 220 220 222 228 233 234 235 234 235 235 233 234 237 239 240 244 244 245 234 218 217 227 238 238 227 226
333 334 327 320 302 290 288 299 301 289 231 222 218 224 227 230 229 225 223 219 219 218 221 228 233 234 234 235 235 234 232 235 239 242 243 244 249 245 229 224 227 234 242 243 238
Height
5876 5875 5873 5872 5871 5870 5869 5868 5867 5866 5865 5863 5863 5862 5861 5862 5863 5863 5862 5863 5864 5869 5873 5875 5877 5878 5879 5881 5883 5885 5888 5890 5890 5887 5887 5885 5884 5884 5885 5886 5887 5889 5890 5891 5892
5874 5872 5871 5870 5869 5868 5867 5866 5865 5865 5864 5862 5861 5860 5859 5860 5860 5860 5861 5862 5863 5867 5870 5873 5874 5877 5879 5880 5883 5883 5887 5890 5888 5885 5886 5887 5885 5885 5885 5885 5887 5888 5890 5890 5892
5871 5870 5869 5868 5867 5866 5865 5864 5863 5863 5862 5861 5859 5858 5857 5857 5858 5858 5859 5861 5862 5863 5865 5867 5870 5874 5877 5879 5881 5882 5886 5888 5887 5886 5883 5886 5887 5886 5884 5885 5887 5889 5890 5891 5892
5867 5866 5866 5865 5864 5863 5862 5862 5861 5860 5860 5858 5858 5857 5854 5854 5856 5855 5856 5858 5859 5860 5862 5866 5869 5872 5876 5877 5879 5881 5883 5886 5888 5887 5883 5883 5886 5887 5884 5883 5886 5888 5890 5890 5890
5864 5862 5862 5861 5860 5859 5859 5858 5858 5858 5857 5856 5855 5855 5853 5852 5852 5852 5853 5854 5856 5858 5860 5864 5867 5869 5872 5874 5877 5878 5880 5882 5887 5888 5887 5883 5884 5887 5885 5884 5887 5888 5889 5890 5890
5860 5858 5857 5857 5856 5855 5855 5855 5856 5855 5854 5854 5853 5852 5850 5851 5850 5851 5850 5851 5852 5855 5857 5861 5865 5866 5867 5871 5874 5875 5874 5877 5885 5887 5887 5888 5884 5885 5885 5886 5887 5887 5886 5887 5889
5855 5853 5853 5852 5851 5851 5849 5850 5851 5851 5851 5850 5850 5849 5848 5849 5847 5848 5848 5848 5849 5851 5853 5857 5859 5863 5865 5867 5870 5872 5874 5875 5882 5886 5888 5887 5886 5886 5886 5884 5887 5887 5886 5886 5889
5849 5848 5846 5846 5846 5845 5844 5846 5846 5846 5847 5847 5847 5846 5844 5846 5844 5845 5847 5846 5846 5847 5849 5851 5855 5857 5860 5863 5866 5869 5873 5876 5877 5884 5885 5887 5888 5886 5886 5886 5884 5886 5886 5885 5888
5843 5842 5840 5839 5839 5838 5839 5839 5840 5841 5842 5842 5842 5842 5841 5843 5842 5842 5842 5843 5844 5844 5845 5846 5850 5854 5857 5860 5863 5866 5871 5874 5875 5878 5880 5886 5886 5885 5885 5886 5883 5885 5886 5886 5888
5837 5836 5833 5832 5832 5832 5832 5832 5833 5835 5836 5837 5838 5839 5838 5839 5839 5838 5838 5840 5840 5840 5841 5844 5845 5849 5853 5855 5859 5863 5868 5871 5873 5877 5878 5882 5883 5883 5884 5885 5883 5885 5886 5886 5888
5828 5827 5826 5824 5824 5824 5824 5825 5826 5828 5830 5830 5833 5832 5832 5833 5835 5835 5835 5835 5836 5838 5839 5840 5841 5845 5850 5853 5859 5861 5864 5868 5870 5872 5874 5877 5880 5882 5879 5882 5882 5884 5886 5887 5888
5817 5816 5816 5814 5814 5814 5815 5815 5815 5816 5821 5822 5824 5827 5824 5825 5828 5831 5832 5832 5833 5835 5834 5837 5840 5842 5843 5847 5852 5856 5860 5866 5868 5870 5871 5873 5876 5878 5880 5878 5880 5883 5887 5887 5887
5803 5802 5804 5802 5802 5802 5804 5804 5805 5805 5808 5818 5815 5818 5816 5818 5822 5824 5826 5827 5829 5829 5831 5833 5837 5836 5838 5842 5845 5850 5858 5863 5866 5865 5866 5869 5871 5875 5878 5876 5875 5878 5885 5886 5887
5787 5785 5787 5789 5790 5789 5790 5791 5792 5793 5795 5803 5805 5805 5808 5808 5812 5815 5818 5821 5822 5826 5826 5827 5831 5832 5834 5838 5842 5846 5853 5856 5858 5859 5860 5863 5863 5868 5873 5876 5875 5875 5881 5885 5885
5769 5768 5770 5772 5775 5774 5775 5776 5778 5781 5781 5787 5791 5794 5798 5800 5805 5808 5811 5810 5815 5819 5820 5827 5827 5828 5830 5836 5836 5843 5846 5851 5853 5853 5855 5856 5857 5864 5867 5871 5873 5873 5879 5882 5884
5750 5750 5752 5755 5754 5757 5757 5758 5762 5765 5765 5769 5773 5781 5784 5789 5792 5797 5798 5803 5808 5807 5811 5816 5819 5819 5826 5827 5831 5836 5837 5841 5844 5846 5840 5850 5852 5857 5862 5870 5873 5870 5875 5880 5882
5731 5730 5733 5734 5737 5736 5737 5740 5742 5746 5753 5755 5758 5765 5771 5775 5781 5784 5788 5791 5798 5799 5804 5810 5813 5816 5820 5822 5825 5825 5829 5829 5832 5831 5831 5846 5845 5854 5859 5865 5870 5868 5872 5877 5880
5706 5705 5709 5712 5714 5715 5716 5719 5722 5728 5732 5737 5742 5746 5755 5760 5767 5772 5777 5781 5783 5789 5796 5799 5802 5809 5815 5819 5822 5823 5821 5820 5823 5827 5830 5836 5835 5847 5857 5861 5866 5868 5869 5872 5874
5678 5676 5680 5683 5688 5689 5692 5696 5702 5707 5710 5718 5724 5729 5734 5745 5753 5758 5762 5769 5774 5779 5785 5788 5792 5798 5804 5810 5813 5814 5815 5825 5820 5822 5826 5826 5834 5840 5849 5855 5861 5865 5867 5869 5872
5646 5645 5649 5652 5656 5660 5665 5671 5675 5680 5688 5693 5702 5710 5716 5723 5736 5740 5745 5752 5759 5764 5769 5775 5781 5788 5795 5795 5799 5806 5813 5812 5811 5813 5817 5820 5826 5833 5843 5851 5856 5860 5863 5868 5870
5615 5612 5616 5617 5621 5629 5635 5642 5649 5652 5661 5670 5679 5687 5697 5705 5714 5721 5726 5736 5744 5751 5756 5762 5769 5779 5780 5782 5794 5799 5801 5802 5804 5807 5814 5817 5823 5830 5838 5847 5851 5856 5861 5865 5867
5596 5592 5590 5589 5592 5596 5602 5611 5619 5628 5635 5642 5652 5661 5673 5684 5691 5699 5710 5717 5726 5734 5742 5749 5753 5764 5772 5779 5783 5787 5791 5790 5795 5807 5811 5813 5817 5825 5832 5839 5846 5852 5855 5861 5864
5583 5579 5575 5574 5573 5572 5576 5582 5589 5599 5606 5616 5625 5636 5648 5661 5670 5678 5689 5699 5707 5715 5722 5732 5738 5749 5758 5765 5769 5770 5780 5785 5792 5795 5797 5804 5812 5824 5826 5832 5838 5843 5849 5854 5858
5574 5569 5565 5562 5560 5560 5561 5562 5566 5572 5585 5589 5598 5610 5623 5635 5646 5656 5668 5679 5688 5696 5703 5712 5721 5733 5739 5751 5757 5760 5768 5773 5780 5779 5791 5792 5808 5817 5822 5826 5831 5834 5839 5842 5847
5568 5562 5558 5554 5551 5550 5550 5549 5550 5554 5563 5572 5577 5584 5598 5610 5622 5635 5648 5658 5669 5678 5685 5694 5702 5714 5723 5733 5741 5748 5756 5762 5765 5774 5777 5792 5797 5809 5816 5821 5823 5827 5831 5835 5839
5563 5557 5554 5550 5547 5545 5543 5543 5542 5544 5549 5558 5563 5566 5576 5586 5598 5612 5625 5637 5648 5660 5668 5675 5686 5695 5707 5715 5724 5734 5745 5752 5757 5763 5767 5780 5784 5799 5809 5814 5817 5820 5824 5827 5832
5560 5554 5548 5546 5543 5542 5540 5540 5540 5541 5544 5547 5552 5554 5557 5565 5576 5587 5600 5617 5629 5638 5649 5658 5666 5676 5689 5699 5707 5717 5734 5741 5748 5752 5761 5770 5783 5792 5802 5806 5809 5813 5815 5819 5823